Index of /20260428/WXO-DD/model_caps/3km/00/011
Name Last modified Size Description
Parent Directory -
20260428T00Z_MSC_CAPS_AbsoluteVorticity_IsbL-0250_RLatLon0.03_PT011H.grib2 2026-04-28 06:08 1.0M
20260428T00Z_MSC_CAPS_AbsoluteVorticity_IsbL-0500_RLatLon0.03_PT011H.grib2 2026-04-28 06:08 1.1M
20260428T00Z_MSC_CAPS_AbsoluteVorticity_IsbL-0700_RLatLon0.03_PT011H.grib2 2026-04-28 06:08 1.0M
20260428T00Z_MSC_CAPS_AbsoluteVorticity_IsbL-0850_RLatLon0.03_PT011H.grib2 2026-04-28 06:08 1.2M
20260428T00Z_MSC_CAPS_AbsoluteVorticity_IsbL-1000_RLatLon0.03_PT011H.grib2 2026-04-28 06:08 1.4M
20260428T00Z_MSC_CAPS_AirDensity_AGL-120m_RLatLon0.03_PT011H.grib2 2026-04-28 06:08 1.4M
20260428T00Z_MSC_CAPS_AirDensity_AGL-40m_RLatLon0.03_PT011H.grib2 2026-04-28 06:08 1.5M
20260428T00Z_MSC_CAPS_AirDensity_AGL-80m_RLatLon0.03_PT011H.grib2 2026-04-28 06:08 1.5M
20260428T00Z_MSC_CAPS_AirTemp_AGL-120m_RLatLon0.03_PT011H.grib2 2026-04-28 06:08 1.8M
20260428T00Z_MSC_CAPS_AirTemp_AGL-2m_RLatLon0.03_PT011H.grib2 2026-04-28 06:08 2.2M
20260428T00Z_MSC_CAPS_AirTemp_AGL-40m_RLatLon0.03_PT011H.grib2 2026-04-28 06:08 1.9M
20260428T00Z_MSC_CAPS_AirTemp_AGL-80m_RLatLon0.03_PT011H.grib2 2026-04-28 06:08 1.8M
20260428T00Z_MSC_CAPS_AirTemp_IsbL-0050_RLatLon0.03_PT011H.grib2 2026-04-28 06:08 695K
20260428T00Z_MSC_CAPS_AirTemp_IsbL-0100_RLatLon0.03_PT011H.grib2 2026-04-28 06:08 958K
20260428T00Z_MSC_CAPS_AirTemp_IsbL-0150_RLatLon0.03_PT011H.grib2 2026-04-28 06:08 746K
20260428T00Z_MSC_CAPS_AirTemp_IsbL-0175_RLatLon0.03_PT011H.grib2 2026-04-28 06:08 765K
20260428T00Z_MSC_CAPS_AirTemp_IsbL-0200_RLatLon0.03_PT011H.grib2 2026-04-28 06:08 781K
20260428T00Z_MSC_CAPS_AirTemp_IsbL-0225_RLatLon0.03_PT011H.grib2 2026-04-28 06:08 790K
20260428T00Z_MSC_CAPS_AirTemp_IsbL-0250_RLatLon0.03_PT011H.grib2 2026-04-28 06:08 787K
20260428T00Z_MSC_CAPS_AirTemp_IsbL-0275_RLatLon0.03_PT011H.grib2 2026-04-28 06:08 1.0M
20260428T00Z_MSC_CAPS_AirTemp_IsbL-0300_RLatLon0.03_PT011H.grib2 2026-04-28 06:08 1.0M
20260428T00Z_MSC_CAPS_AirTemp_IsbL-0350_RLatLon0.03_PT011H.grib2 2026-04-28 06:08 1.0M
20260428T00Z_MSC_CAPS_AirTemp_IsbL-0400_RLatLon0.03_PT011H.grib2 2026-04-28 06:08 748K
20260428T00Z_MSC_CAPS_AirTemp_IsbL-0450_RLatLon0.03_PT011H.grib2 2026-04-28 06:08 762K
20260428T00Z_MSC_CAPS_AirTemp_IsbL-0500_RLatLon0.03_PT011H.grib2 2026-04-28 06:08 776K
20260428T00Z_MSC_CAPS_AirTemp_IsbL-0550_RLatLon0.03_PT011H.grib2 2026-04-28 06:08 794K
20260428T00Z_MSC_CAPS_AirTemp_IsbL-0600_RLatLon0.03_PT011H.grib2 2026-04-28 06:08 808K
20260428T00Z_MSC_CAPS_AirTemp_IsbL-0650_RLatLon0.03_PT011H.grib2 2026-04-28 06:08 829K
20260428T00Z_MSC_CAPS_AirTemp_IsbL-0700_RLatLon0.03_PT011H.grib2 2026-04-28 06:08 1.0M
20260428T00Z_MSC_CAPS_AirTemp_IsbL-0750_RLatLon0.03_PT011H.grib2 2026-04-28 06:08 1.0M
20260428T00Z_MSC_CAPS_AirTemp_IsbL-0800_RLatLon0.03_PT011H.grib2 2026-04-28 06:08 1.0M
20260428T00Z_MSC_CAPS_AirTemp_IsbL-0850_RLatLon0.03_PT011H.grib2 2026-04-28 06:08 1.1M
20260428T00Z_MSC_CAPS_AirTemp_IsbL-0875_RLatLon0.03_PT011H.grib2 2026-04-28 06:08 1.1M
20260428T00Z_MSC_CAPS_AirTemp_IsbL-0900_RLatLon0.03_PT011H.grib2 2026-04-28 06:08 1.1M
20260428T00Z_MSC_CAPS_AirTemp_IsbL-0925_RLatLon0.03_PT011H.grib2 2026-04-28 06:08 1.2M
20260428T00Z_MSC_CAPS_AirTemp_IsbL-0950_RLatLon0.03_PT011H.grib2 2026-04-28 06:08 1.2M
20260428T00Z_MSC_CAPS_AirTemp_IsbL-0970_RLatLon0.03_PT011H.grib2 2026-04-28 06:08 1.2M
20260428T00Z_MSC_CAPS_AirTemp_IsbL-0985_RLatLon0.03_PT011H.grib2 2026-04-28 06:08 1.2M
20260428T00Z_MSC_CAPS_AirTemp_IsbL-1000_RLatLon0.03_PT011H.grib2 2026-04-28 06:08 1.1M
20260428T00Z_MSC_CAPS_AirTemp_IsbL-1015_RLatLon0.03_PT011H.grib2 2026-04-28 06:08 1.2M
20260428T00Z_MSC_CAPS_Albedo_Sfc_RLatLon0.03_PT011H.grib2 2026-04-28 06:08 2.7M
20260428T00Z_MSC_CAPS_CAPE_Sfc_RLatLon0.03_PT011H.grib2 2026-04-28 06:08 42K
20260428T00Z_MSC_CAPS_CloudWater_EAtm_RLatLon0.03_PT011H.grib2 2026-04-28 06:08 1.4M
20260428T00Z_MSC_CAPS_ConvectivePrecip-Accum_Sfc_RLatLon0.03_PT011H.grib2 2026-04-28 06:08 2.4M
20260428T00Z_MSC_CAPS_DewPointDepression_AGL-120m_RLatLon0.03_PT011H.grib2 2026-04-28 06:08 2.0M
20260428T00Z_MSC_CAPS_DewPointDepression_AGL-2m_RLatLon0.03_PT011H.grib2 2026-04-28 06:08 2.1M
20260428T00Z_MSC_CAPS_DewPointDepression_AGL-40m_RLatLon0.03_PT011H.grib2 2026-04-28 06:08 2.1M
20260428T00Z_MSC_CAPS_DewPointDepression_AGL-80m_RLatLon0.03_PT011H.grib2 2026-04-28 06:08 2.1M
20260428T00Z_MSC_CAPS_DewPointDepression_IsbL-0050_RLatLon0.03_PT011H.grib2 2026-04-28 06:08 3.9K
20260428T00Z_MSC_CAPS_DewPointDepression_IsbL-0100_RLatLon0.03_PT011H.grib2 2026-04-28 06:08 125K
20260428T00Z_MSC_CAPS_DewPointDepression_IsbL-0150_RLatLon0.03_PT011H.grib2 2026-04-28 06:08 81K
20260428T00Z_MSC_CAPS_DewPointDepression_IsbL-0175_RLatLon0.03_PT011H.grib2 2026-04-28 06:08 183K
20260428T00Z_MSC_CAPS_DewPointDepression_IsbL-0200_RLatLon0.03_PT011H.grib2 2026-04-28 06:08 365K
20260428T00Z_MSC_CAPS_DewPointDepression_IsbL-0225_RLatLon0.03_PT011H.grib2 2026-04-28 06:08 629K
20260428T00Z_MSC_CAPS_DewPointDepression_IsbL-0250_RLatLon0.03_PT011H.grib2 2026-04-28 06:08 867K
20260428T00Z_MSC_CAPS_DewPointDepression_IsbL-0275_RLatLon0.03_PT011H.grib2 2026-04-28 06:08 1.0M
20260428T00Z_MSC_CAPS_DewPointDepression_IsbL-0300_RLatLon0.03_PT011H.grib2 2026-04-28 06:08 1.0M
20260428T00Z_MSC_CAPS_DewPointDepression_IsbL-0350_RLatLon0.03_PT011H.grib2 2026-04-28 06:08 1.1M
20260428T00Z_MSC_CAPS_DewPointDepression_IsbL-0400_RLatLon0.03_PT011H.grib2 2026-04-28 06:08 1.1M
20260428T00Z_MSC_CAPS_DewPointDepression_IsbL-0450_RLatLon0.03_PT011H.grib2 2026-04-28 06:08 1.1M
20260428T00Z_MSC_CAPS_DewPointDepression_IsbL-0500_RLatLon0.03_PT011H.grib2 2026-04-28 06:08 1.1M
20260428T00Z_MSC_CAPS_DewPointDepression_IsbL-0550_RLatLon0.03_PT011H.grib2 2026-04-28 06:08 1.2M
20260428T00Z_MSC_CAPS_DewPointDepression_IsbL-0600_RLatLon0.03_PT011H.grib2 2026-04-28 06:08 1.2M
20260428T00Z_MSC_CAPS_DewPointDepression_IsbL-0650_RLatLon0.03_PT011H.grib2 2026-04-28 06:08 1.2M
20260428T00Z_MSC_CAPS_DewPointDepression_IsbL-0700_RLatLon0.03_PT011H.grib2 2026-04-28 06:08 1.2M
20260428T00Z_MSC_CAPS_DewPointDepression_IsbL-0750_RLatLon0.03_PT011H.grib2 2026-04-28 06:08 1.3M
20260428T00Z_MSC_CAPS_DewPointDepression_IsbL-0800_RLatLon0.03_PT011H.grib2 2026-04-28 06:08 1.3M
20260428T00Z_MSC_CAPS_DewPointDepression_IsbL-0850_RLatLon0.03_PT011H.grib2 2026-04-28 06:08 1.3M
20260428T00Z_MSC_CAPS_DewPointDepression_IsbL-0875_RLatLon0.03_PT011H.grib2 2026-04-28 06:08 1.3M
20260428T00Z_MSC_CAPS_DewPointDepression_IsbL-0900_RLatLon0.03_PT011H.grib2 2026-04-28 06:08 1.4M
20260428T00Z_MSC_CAPS_DewPointDepression_IsbL-0925_RLatLon0.03_PT011H.grib2 2026-04-28 06:08 1.4M
20260428T00Z_MSC_CAPS_DewPointDepression_IsbL-0950_RLatLon0.03_PT011H.grib2 2026-04-28 06:08 1.4M
20260428T00Z_MSC_CAPS_DewPointDepression_IsbL-0970_RLatLon0.03_PT011H.grib2 2026-04-28 06:08 1.4M
20260428T00Z_MSC_CAPS_DewPointDepression_IsbL-0985_RLatLon0.03_PT011H.grib2 2026-04-28 06:08 1.4M
20260428T00Z_MSC_CAPS_DewPointDepression_IsbL-1000_RLatLon0.03_PT011H.grib2 2026-04-28 06:08 1.4M
20260428T00Z_MSC_CAPS_DewPointDepression_IsbL-1015_RLatLon0.03_PT011H.grib2 2026-04-28 06:08 1.4M
20260428T00Z_MSC_CAPS_DewPoint_AGL-120m_RLatLon0.03_PT011H.grib2 2026-04-28 06:08 3.6M
20260428T00Z_MSC_CAPS_DewPoint_AGL-2m_RLatLon0.03_PT011H.grib2 2026-04-28 06:08 2.3M
20260428T00Z_MSC_CAPS_DewPoint_AGL-40m_RLatLon0.03_PT011H.grib2 2026-04-28 06:08 3.7M
20260428T00Z_MSC_CAPS_DewPoint_AGL-80m_RLatLon0.03_PT011H.grib2 2026-04-28 06:08 3.7M
20260428T00Z_MSC_CAPS_DownwardLongwaveRadiationFlux-Accum_Sfc_RLatLon0.03_PT011H.grib2 2026-04-28 06:08 2.3M
20260428T00Z_MSC_CAPS_DownwardShortwaveRadiationFlux-Accum_NTAtm_RLatLon0.03_PT011H.grib2 2026-04-28 06:08 463K
20260428T00Z_MSC_CAPS_DownwardShortwaveRadiationFlux-Accum_Sfc_RLatLon0.03_PT011H.grib2 2026-04-28 06:08 2.2M
20260428T00Z_MSC_CAPS_FreezingRain-Accum_Sfc_RLatLon0.03_PT011H.grib2 2026-04-28 06:08 431K
20260428T00Z_MSC_CAPS_GeopotentialHeight_IsbL-0050_RLatLon0.03_PT011H.grib2 2026-04-28 06:08 641K
20260428T00Z_MSC_CAPS_GeopotentialHeight_IsbL-0100_RLatLon0.03_PT011H.grib2 2026-04-28 06:08 762K
20260428T00Z_MSC_CAPS_GeopotentialHeight_IsbL-0150_RLatLon0.03_PT011H.grib2 2026-04-28 06:08 719K
20260428T00Z_MSC_CAPS_GeopotentialHeight_IsbL-0175_RLatLon0.03_PT011H.grib2 2026-04-28 06:08 726K
20260428T00Z_MSC_CAPS_GeopotentialHeight_IsbL-0200_RLatLon0.03_PT011H.grib2 2026-04-28 06:08 744K
20260428T00Z_MSC_CAPS_GeopotentialHeight_IsbL-0225_RLatLon0.03_PT011H.grib2 2026-04-28 06:08 752K
20260428T00Z_MSC_CAPS_GeopotentialHeight_IsbL-0250_RLatLon0.03_PT011H.grib2 2026-04-28 06:08 763K
20260428T00Z_MSC_CAPS_GeopotentialHeight_IsbL-0275_RLatLon0.03_PT011H.grib2 2026-04-28 06:08 775K
20260428T00Z_MSC_CAPS_GeopotentialHeight_IsbL-0300_RLatLon0.03_PT011H.grib2 2026-04-28 06:08 781K
20260428T00Z_MSC_CAPS_GeopotentialHeight_IsbL-0350_RLatLon0.03_PT011H.grib2 2026-04-28 06:08 776K
20260428T00Z_MSC_CAPS_GeopotentialHeight_IsbL-0400_RLatLon0.03_PT011H.grib2 2026-04-28 06:08 772K
20260428T00Z_MSC_CAPS_GeopotentialHeight_IsbL-0450_RLatLon0.03_PT011H.grib2 2026-04-28 06:08 763K
20260428T00Z_MSC_CAPS_GeopotentialHeight_IsbL-0500_RLatLon0.03_PT011H.grib2 2026-04-28 06:08 756K
20260428T00Z_MSC_CAPS_GeopotentialHeight_IsbL-0550_RLatLon0.03_PT011H.grib2 2026-04-28 06:08 744K
20260428T00Z_MSC_CAPS_GeopotentialHeight_IsbL-0600_RLatLon0.03_PT011H.grib2 2026-04-28 06:08 738K
20260428T00Z_MSC_CAPS_GeopotentialHeight_IsbL-0650_RLatLon0.03_PT011H.grib2 2026-04-28 06:08 630K
20260428T00Z_MSC_CAPS_GeopotentialHeight_IsbL-0700_RLatLon0.03_PT011H.grib2 2026-04-28 06:08 626K
20260428T00Z_MSC_CAPS_GeopotentialHeight_IsbL-0750_RLatLon0.03_PT011H.grib2 2026-04-28 06:08 801K
20260428T00Z_MSC_CAPS_GeopotentialHeight_IsbL-0800_RLatLon0.03_PT011H.grib2 2026-04-28 06:08 809K
20260428T00Z_MSC_CAPS_GeopotentialHeight_IsbL-0850_RLatLon0.03_PT011H.grib2 2026-04-28 06:08 818K
20260428T00Z_MSC_CAPS_GeopotentialHeight_IsbL-0875_RLatLon0.03_PT011H.grib2 2026-04-28 06:08 823K
20260428T00Z_MSC_CAPS_GeopotentialHeight_IsbL-0900_RLatLon0.03_PT011H.grib2 2026-04-28 06:08 827K
20260428T00Z_MSC_CAPS_GeopotentialHeight_IsbL-0925_RLatLon0.03_PT011H.grib2 2026-04-28 06:08 839K
20260428T00Z_MSC_CAPS_GeopotentialHeight_IsbL-0950_RLatLon0.03_PT011H.grib2 2026-04-28 06:08 844K
20260428T00Z_MSC_CAPS_GeopotentialHeight_IsbL-0970_RLatLon0.03_PT011H.grib2 2026-04-28 06:08 858K
20260428T00Z_MSC_CAPS_GeopotentialHeight_IsbL-0985_RLatLon0.03_PT011H.grib2 2026-04-28 06:08 956K
20260428T00Z_MSC_CAPS_GeopotentialHeight_IsbL-1000_RLatLon0.03_PT011H.grib2 2026-04-28 06:08 964K
20260428T00Z_MSC_CAPS_GeopotentialHeight_IsbL-1015_RLatLon0.03_PT011H.grib2 2026-04-28 06:08 1.0M
20260428T00Z_MSC_CAPS_GeopotentialHeight_Sfc_RLatLon0.03_PT011H.grib2 2026-04-28 06:08 1.0M
20260428T00Z_MSC_CAPS_IcePellets-Accum_Sfc_RLatLon0.03_PT011H.grib2 2026-04-28 06:08 18K
20260428T00Z_MSC_CAPS_LatentHeatNetFlux_Sfc_RLatLon0.03_PT011H.grib2 2026-04-28 06:08 1.6M
20260428T00Z_MSC_CAPS_LiftedIndex-MU-VT_IsbL-0500_RLatLon0.03_PT011H.grib2 2026-04-28 06:08 3.3M
20260428T00Z_MSC_CAPS_MixedLayerThickness_Sfc_RLatLon0.03_PT011H.nc 2026-04-28 06:11 17M
20260428T00Z_MSC_CAPS_NetLongwaveRadiationFlux-Accum_Sfc_RLatLon0.03_PT011H.grib2 2026-04-28 06:08 3.0M
20260428T00Z_MSC_CAPS_NetShortwaveRadiationFlux-Accum_Sfc_RLatLon0.03_PT011H.grib2 2026-04-28 06:08 2.3M
20260428T00Z_MSC_CAPS_PlanetaryBoundaryLayerHeight_Sfc_RLatLon0.03_PT011H.grib2 2026-04-28 06:08 2.6M
20260428T00Z_MSC_CAPS_Precip-Accum_Sfc_RLatLon0.03_PT011H.grib2 2026-04-28 06:08 3.4M
20260428T00Z_MSC_CAPS_PrecipRate_Sfc_RLatLon0.03_PT011H.grib2 2026-04-28 06:08 466K
20260428T00Z_MSC_CAPS_PrecipType-Instant_Sfc_RLatLon0.03_PT011H.grib2 2026-04-28 06:08 1.7M
20260428T00Z_MSC_CAPS_Pressure_MSL_RLatLon0.03_PT011H.grib2 2026-04-28 06:08 770K
20260428T00Z_MSC_CAPS_Pressure_Sfc_RLatLon0.03_PT011H.grib2 2026-04-28 06:08 1.2M
20260428T00Z_MSC_CAPS_RadiativeTemp_Sfc_RLatLon0.03_PT011H.grib2 2026-04-28 06:08 2.2M
20260428T00Z_MSC_CAPS_Rain-Accum_Sfc_RLatLon0.03_PT011H.grib2 2026-04-28 06:08 1.4M
20260428T00Z_MSC_CAPS_RelativeHumidity_AGL-120m_RLatLon0.03_PT011H.grib2 2026-04-28 06:08 2.7M
20260428T00Z_MSC_CAPS_RelativeHumidity_AGL-2m_RLatLon0.03_PT011H.grib2 2026-04-28 06:08 2.9M
20260428T00Z_MSC_CAPS_RelativeHumidity_AGL-40m_RLatLon0.03_PT011H.grib2 2026-04-28 06:08 2.8M
20260428T00Z_MSC_CAPS_RelativeHumidity_AGL-80m_RLatLon0.03_PT011H.grib2 2026-04-28 06:08 2.8M
20260428T00Z_MSC_CAPS_RelativeHumidity_IsbL-0050_RLatLon0.03_PT011H.grib2 2026-04-28 06:08 1.0M
20260428T00Z_MSC_CAPS_RelativeHumidity_IsbL-0100_RLatLon0.03_PT011H.grib2 2026-04-28 06:08 1.0M
20260428T00Z_MSC_CAPS_RelativeHumidity_IsbL-0150_RLatLon0.03_PT011H.grib2 2026-04-28 06:08 604K
20260428T00Z_MSC_CAPS_RelativeHumidity_IsbL-0175_RLatLon0.03_PT011H.grib2 2026-04-28 06:08 476K
20260428T00Z_MSC_CAPS_RelativeHumidity_IsbL-0200_RLatLon0.03_PT011H.grib2 2026-04-28 06:08 630K
20260428T00Z_MSC_CAPS_RelativeHumidity_IsbL-0225_RLatLon0.03_PT011H.grib2 2026-04-28 06:08 852K
20260428T00Z_MSC_CAPS_RelativeHumidity_IsbL-0250_RLatLon0.03_PT011H.grib2 2026-04-28 06:08 1.1M
20260428T00Z_MSC_CAPS_RelativeHumidity_IsbL-0275_RLatLon0.03_PT011H.grib2 2026-04-28 06:08 1.4M
20260428T00Z_MSC_CAPS_RelativeHumidity_IsbL-0300_RLatLon0.03_PT011H.grib2 2026-04-28 06:08 1.5M
20260428T00Z_MSC_CAPS_RelativeHumidity_IsbL-0350_RLatLon0.03_PT011H.grib2 2026-04-28 06:08 1.7M
20260428T00Z_MSC_CAPS_RelativeHumidity_IsbL-0400_RLatLon0.03_PT011H.grib2 2026-04-28 06:08 1.9M
20260428T00Z_MSC_CAPS_RelativeHumidity_IsbL-0450_RLatLon0.03_PT011H.grib2 2026-04-28 06:08 2.0M
20260428T00Z_MSC_CAPS_RelativeHumidity_IsbL-0500_RLatLon0.03_PT011H.grib2 2026-04-28 06:08 1.9M
20260428T00Z_MSC_CAPS_RelativeHumidity_IsbL-0550_RLatLon0.03_PT011H.grib2 2026-04-28 06:08 2.1M
20260428T00Z_MSC_CAPS_RelativeHumidity_IsbL-0600_RLatLon0.03_PT011H.grib2 2026-04-28 06:08 2.1M
20260428T00Z_MSC_CAPS_RelativeHumidity_IsbL-0650_RLatLon0.03_PT011H.grib2 2026-04-28 06:08 2.0M
20260428T00Z_MSC_CAPS_RelativeHumidity_IsbL-0700_RLatLon0.03_PT011H.grib2 2026-04-28 06:08 2.2M
20260428T00Z_MSC_CAPS_RelativeHumidity_IsbL-0750_RLatLon0.03_PT011H.grib2 2026-04-28 06:08 2.3M
20260428T00Z_MSC_CAPS_RelativeHumidity_IsbL-0800_RLatLon0.03_PT011H.grib2 2026-04-28 06:08 2.4M
20260428T00Z_MSC_CAPS_RelativeHumidity_IsbL-0850_RLatLon0.03_PT011H.grib2 2026-04-28 06:08 2.4M
20260428T00Z_MSC_CAPS_RelativeHumidity_IsbL-0875_RLatLon0.03_PT011H.grib2 2026-04-28 06:08 2.5M
20260428T00Z_MSC_CAPS_RelativeHumidity_IsbL-0900_RLatLon0.03_PT011H.grib2 2026-04-28 06:08 2.5M
20260428T00Z_MSC_CAPS_RelativeHumidity_IsbL-0925_RLatLon0.03_PT011H.grib2 2026-04-28 06:08 2.6M
20260428T00Z_MSC_CAPS_RelativeHumidity_IsbL-0950_RLatLon0.03_PT011H.grib2 2026-04-28 06:08 2.6M
20260428T00Z_MSC_CAPS_RelativeHumidity_IsbL-0970_RLatLon0.03_PT011H.grib2 2026-04-28 06:08 2.7M
20260428T00Z_MSC_CAPS_RelativeHumidity_IsbL-0985_RLatLon0.03_PT011H.grib2 2026-04-28 06:08 2.8M
20260428T00Z_MSC_CAPS_RelativeHumidity_IsbL-1000_RLatLon0.03_PT011H.grib2 2026-04-28 06:08 2.9M
20260428T00Z_MSC_CAPS_RelativeHumidity_IsbL-1015_RLatLon0.03_PT011H.grib2 2026-04-28 06:08 3.0M
20260428T00Z_MSC_CAPS_Runoff-Accum_Sfc_RLatLon0.03_PT011H.grib2 2026-04-28 06:08 227K
20260428T00Z_MSC_CAPS_SeaIceAreaFraction_Sfc_RLatLon0.03_PT011H.nc 2026-04-28 06:11 15M
20260428T00Z_MSC_CAPS_SeaIceCompressiveStrength_Sfc_RLatLon0.03_PT011H.nc 2026-04-28 06:11 15M
20260428T00Z_MSC_CAPS_SeaIceDivergence_Sfc_RLatLon0.03_PT011H.nc 2026-04-28 06:11 15M
20260428T00Z_MSC_CAPS_SeaIceInternalPressure_Sfc_RLatLon0.03_PT011H.nc 2026-04-28 06:11 15M
20260428T00Z_MSC_CAPS_SeaIceShear_Sfc_RLatLon0.03_PT011H.nc 2026-04-28 06:11 15M
20260428T00Z_MSC_CAPS_SeaIceSnowTemp_Sfc_RLatLon0.03_PT011H.nc 2026-04-28 06:11 15M
20260428T00Z_MSC_CAPS_SeaIceSnowVolume_Sfc_RLatLon0.03_PT011H.nc 2026-04-28 06:11 15M
20260428T00Z_MSC_CAPS_SeaIceVelocityX_Sfc_RLatLon0.03_PT011H.nc 2026-04-28 06:11 15M
20260428T00Z_MSC_CAPS_SeaIceVelocityY_Sfc_RLatLon0.03_PT011H.nc 2026-04-28 06:11 15M
20260428T00Z_MSC_CAPS_SeaIceVolume_Sfc_RLatLon0.03_PT011H.nc 2026-04-28 06:11 15M
20260428T00Z_MSC_CAPS_SeaSurfaceHeight_Sfc_RLatLon0.03_PT011H.nc 2026-04-28 06:11 16M
20260428T00Z_MSC_CAPS_SeaWaterSalinity_DBS-0.5m_RLatLon0.03_PT011H.nc 2026-04-28 06:11 16M
20260428T00Z_MSC_CAPS_SeaWaterSalinity_DBS-all_RLatLon0.03_PT011H.nc 2026-04-28 06:11 107M
20260428T00Z_MSC_CAPS_SeaWaterTemp_DBS-0.5m_RLatLon0.03_PT011H.nc 2026-04-28 06:11 14M
20260428T00Z_MSC_CAPS_SeaWaterTemp_DBS-all_RLatLon0.03_PT011H.nc 2026-04-28 06:11 87M
20260428T00Z_MSC_CAPS_SeaWaterVelocityX_DBS-0.5m_RLatLon0.03_PT011H.nc 2026-04-28 06:11 17M
20260428T00Z_MSC_CAPS_SeaWaterVelocityX_DBS-all_RLatLon0.03_PT011H.nc 2026-04-28 06:11 209M
20260428T00Z_MSC_CAPS_SeaWaterVelocityY_DBS-0.5m_RLatLon0.03_PT011H.nc 2026-04-28 06:11 17M
20260428T00Z_MSC_CAPS_SeaWaterVelocityY_DBS-all_RLatLon0.03_PT011H.nc 2026-04-28 06:11 216M
20260428T00Z_MSC_CAPS_SensibleHeatNetFlux_Sfc_RLatLon0.03_PT011H.grib2 2026-04-28 06:08 2.0M
20260428T00Z_MSC_CAPS_ShowalterIndex_IsbL-0500_RLatLon0.03_PT011H.grib2 2026-04-28 06:08 4.3M
20260428T00Z_MSC_CAPS_Snow-Accum_Sfc_RLatLon0.03_PT011H.grib2 2026-04-28 06:08 2.7M
20260428T00Z_MSC_CAPS_SnowDensity_Sfc_RLatLon0.03_PT011H.grib2 2026-04-28 06:08 1.3M
20260428T00Z_MSC_CAPS_SnowDepthWaterEquivalent_Sfc_RLatLon0.03_PT011H.grib2 2026-04-28 06:08 709K
20260428T00Z_MSC_CAPS_SnowDepth_Sfc_RLatLon0.03_PT011H.grib2 2026-04-28 06:08 1.2M
20260428T00Z_MSC_CAPS_SoilTemp_DBS-0to10cm_RLatLon0.03_PT011H.grib2 2026-04-28 06:08 1.5M
20260428T00Z_MSC_CAPS_SoilTemp_Sfc_RLatLon0.03_PT011H.grib2 2026-04-28 06:08 1.9M
20260428T00Z_MSC_CAPS_SoilVolumetricIceContent_Sfc_RLatLon0.03_PT011H.grib2 2026-04-28 06:08 1.4M
20260428T00Z_MSC_CAPS_SoilVolumetricWaterContent_DBS-0to10cm_RLatLon0.03_PT011H.grib2 2026-04-28 06:08 1.1M
20260428T00Z_MSC_CAPS_SoilVolumetricWaterContent_DBS-0to1cm_RLatLon0.03_PT011H.grib2 2026-04-28 06:08 1.7M
20260428T00Z_MSC_CAPS_SpecificHumidity_AGL-120m_RLatLon0.03_PT011H.grib2 2026-04-28 06:08 1.6M
20260428T00Z_MSC_CAPS_SpecificHumidity_AGL-2m_RLatLon0.03_PT011H.grib2 2026-04-28 06:08 2.1M
20260428T00Z_MSC_CAPS_SpecificHumidity_AGL-40m_RLatLon0.03_PT011H.grib2 2026-04-28 06:08 1.7M
20260428T00Z_MSC_CAPS_SpecificHumidity_AGL-80m_RLatLon0.03_PT011H.grib2 2026-04-28 06:08 1.7M
20260428T00Z_MSC_CAPS_SpecificHumidity_IsbL-0050_RLatLon0.03_PT011H.grib2 2026-04-28 06:08 884K
20260428T00Z_MSC_CAPS_SpecificHumidity_IsbL-0100_RLatLon0.03_PT011H.grib2 2026-04-28 06:08 1.0M
20260428T00Z_MSC_CAPS_SpecificHumidity_IsbL-0150_RLatLon0.03_PT011H.grib2 2026-04-28 06:08 1.0M
20260428T00Z_MSC_CAPS_SpecificHumidity_IsbL-0175_RLatLon0.03_PT011H.grib2 2026-04-28 06:08 973K
20260428T00Z_MSC_CAPS_SpecificHumidity_IsbL-0200_RLatLon0.03_PT011H.grib2 2026-04-28 06:08 842K
20260428T00Z_MSC_CAPS_SpecificHumidity_IsbL-0225_RLatLon0.03_PT011H.grib2 2026-04-28 06:08 1.0M
20260428T00Z_MSC_CAPS_SpecificHumidity_IsbL-0250_RLatLon0.03_PT011H.grib2 2026-04-28 06:08 1.0M
20260428T00Z_MSC_CAPS_SpecificHumidity_IsbL-0275_RLatLon0.03_PT011H.grib2 2026-04-28 06:08 1.0M
20260428T00Z_MSC_CAPS_SpecificHumidity_IsbL-0300_RLatLon0.03_PT011H.grib2 2026-04-28 06:08 953K
20260428T00Z_MSC_CAPS_SpecificHumidity_IsbL-0350_RLatLon0.03_PT011H.grib2 2026-04-28 06:08 1.1M
20260428T00Z_MSC_CAPS_SpecificHumidity_IsbL-0400_RLatLon0.03_PT011H.grib2 2026-04-28 06:08 1.1M
20260428T00Z_MSC_CAPS_SpecificHumidity_IsbL-0450_RLatLon0.03_PT011H.grib2 2026-04-28 06:08 1.1M
20260428T00Z_MSC_CAPS_SpecificHumidity_IsbL-0500_RLatLon0.03_PT011H.grib2 2026-04-28 06:08 1.2M
20260428T00Z_MSC_CAPS_SpecificHumidity_IsbL-0550_RLatLon0.03_PT011H.grib2 2026-04-28 06:08 1.2M
20260428T00Z_MSC_CAPS_SpecificHumidity_IsbL-0600_RLatLon0.03_PT011H.grib2 2026-04-28 06:08 1.3M
20260428T00Z_MSC_CAPS_SpecificHumidity_IsbL-0650_RLatLon0.03_PT011H.grib2 2026-04-28 06:08 1.4M
20260428T00Z_MSC_CAPS_SpecificHumidity_IsbL-0700_RLatLon0.03_PT011H.grib2 2026-04-28 06:08 1.5M
20260428T00Z_MSC_CAPS_SpecificHumidity_IsbL-0750_RLatLon0.03_PT011H.grib2 2026-04-28 06:08 1.7M
20260428T00Z_MSC_CAPS_SpecificHumidity_IsbL-0800_RLatLon0.03_PT011H.grib2 2026-04-28 06:08 1.4M
20260428T00Z_MSC_CAPS_SpecificHumidity_IsbL-0850_RLatLon0.03_PT011H.grib2 2026-04-28 06:08 1.6M
20260428T00Z_MSC_CAPS_SpecificHumidity_IsbL-0875_RLatLon0.03_PT011H.grib2 2026-04-28 06:08 1.6M
20260428T00Z_MSC_CAPS_SpecificHumidity_IsbL-0900_RLatLon0.03_PT011H.grib2 2026-04-28 06:08 1.7M
20260428T00Z_MSC_CAPS_SpecificHumidity_IsbL-0925_RLatLon0.03_PT011H.grib2 2026-04-28 06:08 1.8M
20260428T00Z_MSC_CAPS_SpecificHumidity_IsbL-0950_RLatLon0.03_PT011H.grib2 2026-04-28 06:08 1.8M
20260428T00Z_MSC_CAPS_SpecificHumidity_IsbL-0970_RLatLon0.03_PT011H.grib2 2026-04-28 06:08 1.9M
20260428T00Z_MSC_CAPS_SpecificHumidity_IsbL-0985_RLatLon0.03_PT011H.grib2 2026-04-28 06:08 1.9M
20260428T00Z_MSC_CAPS_SpecificHumidity_IsbL-1000_RLatLon0.03_PT011H.grib2 2026-04-28 06:08 2.0M
20260428T00Z_MSC_CAPS_SpecificHumidity_IsbL-1015_RLatLon0.03_PT011H.grib2 2026-04-28 06:08 2.1M
20260428T00Z_MSC_CAPS_SpecificHumidity_Sfc_RLatLon0.03_PT011H.grib2 2026-04-28 06:08 2.0M
20260428T00Z_MSC_CAPS_StormRelativeHelicity_Sfc_RLatLon0.03_PT011H.grib2 2026-04-28 06:08 3.2M
20260428T00Z_MSC_CAPS_Thickness_IsbL-1000to0500_RLatLon0.03_PT011H.grib2 2026-04-28 06:08 430K
20260428T00Z_MSC_CAPS_TotalCloudCover_Sfc_RLatLon0.03_PT011H.grib2 2026-04-28 06:08 3.6M
20260428T00Z_MSC_CAPS_TurboclineDepth_Sfc_RLatLon0.03_PT011H.nc 2026-04-28 06:11 16M
20260428T00Z_MSC_CAPS_UpwardLongwaveRadiationFlux_NTAtm_RLatLon0.03_PT011H.grib2 2026-04-28 06:08 2.8M
20260428T00Z_MSC_CAPS_UpwardShortwaveRadiationFlux_NTAtm_RLatLon0.03_PT011H.grib2 2026-04-28 06:08 1.9M
20260428T00Z_MSC_CAPS_VerticalVelocity_IsbL-0250_RLatLon0.03_PT011H.grib2 2026-04-28 06:08 875K
20260428T00Z_MSC_CAPS_VerticalVelocity_IsbL-0500_RLatLon0.03_PT011H.grib2 2026-04-28 06:08 851K
20260428T00Z_MSC_CAPS_VerticalVelocity_IsbL-0700_RLatLon0.03_PT011H.grib2 2026-04-28 06:08 913K
20260428T00Z_MSC_CAPS_VerticalVelocity_IsbL-0850_RLatLon0.03_PT011H.grib2 2026-04-28 06:08 1.0M
20260428T00Z_MSC_CAPS_VerticalVelocity_IsbL-1000_RLatLon0.03_PT011H.grib2 2026-04-28 06:08 1.1M
20260428T00Z_MSC_CAPS_WindDir_AGL-10m_RLatLon0.03_PT011H.grib2 2026-04-28 06:08 2.5M
20260428T00Z_MSC_CAPS_WindDir_AGL-120m_RLatLon0.03_PT011H.grib2 2026-04-28 06:08 1.3M
20260428T00Z_MSC_CAPS_WindDir_AGL-40m_RLatLon0.03_PT011H.grib2 2026-04-28 06:08 1.4M
20260428T00Z_MSC_CAPS_WindDir_AGL-80m_RLatLon0.03_PT011H.grib2 2026-04-28 06:08 1.3M
20260428T00Z_MSC_CAPS_WindDir_IsbL-0050_RLatLon0.03_PT011H.grib2 2026-04-28 06:08 1.0M
20260428T00Z_MSC_CAPS_WindDir_IsbL-0100_RLatLon0.03_PT011H.grib2 2026-04-28 06:08 1.0M
20260428T00Z_MSC_CAPS_WindDir_IsbL-0150_RLatLon0.03_PT011H.grib2 2026-04-28 06:08 1.0M
20260428T00Z_MSC_CAPS_WindDir_IsbL-0175_RLatLon0.03_PT011H.grib2 2026-04-28 06:08 1.1M
20260428T00Z_MSC_CAPS_WindDir_IsbL-0200_RLatLon0.03_PT011H.grib2 2026-04-28 06:08 1.0M
20260428T00Z_MSC_CAPS_WindDir_IsbL-0225_RLatLon0.03_PT011H.grib2 2026-04-28 06:08 1.1M
20260428T00Z_MSC_CAPS_WindDir_IsbL-0250_RLatLon0.03_PT011H.grib2 2026-04-28 06:08 1.1M
20260428T00Z_MSC_CAPS_WindDir_IsbL-0275_RLatLon0.03_PT011H.grib2 2026-04-28 06:08 1.1M
20260428T00Z_MSC_CAPS_WindDir_IsbL-0300_RLatLon0.03_PT011H.grib2 2026-04-28 06:08 1.1M
20260428T00Z_MSC_CAPS_WindDir_IsbL-0350_RLatLon0.03_PT011H.grib2 2026-04-28 06:08 1.1M
20260428T00Z_MSC_CAPS_WindDir_IsbL-0400_RLatLon0.03_PT011H.grib2 2026-04-28 06:08 1.2M
20260428T00Z_MSC_CAPS_WindDir_IsbL-0450_RLatLon0.03_PT011H.grib2 2026-04-28 06:08 1.2M
20260428T00Z_MSC_CAPS_WindDir_IsbL-0500_RLatLon0.03_PT011H.grib2 2026-04-28 06:08 1.2M
20260428T00Z_MSC_CAPS_WindDir_IsbL-0550_RLatLon0.03_PT011H.grib2 2026-04-28 06:08 1.3M
20260428T00Z_MSC_CAPS_WindDir_IsbL-0600_RLatLon0.03_PT011H.grib2 2026-04-28 06:08 1.3M
20260428T00Z_MSC_CAPS_WindDir_IsbL-0650_RLatLon0.03_PT011H.grib2 2026-04-28 06:08 1.3M
20260428T00Z_MSC_CAPS_WindDir_IsbL-0700_RLatLon0.03_PT011H.grib2 2026-04-28 06:08 1.4M
20260428T00Z_MSC_CAPS_WindDir_IsbL-0750_RLatLon0.03_PT011H.grib2 2026-04-28 06:08 1.5M
20260428T00Z_MSC_CAPS_WindDir_IsbL-0800_RLatLon0.03_PT011H.grib2 2026-04-28 06:08 1.6M
20260428T00Z_MSC_CAPS_WindDir_IsbL-0850_RLatLon0.03_PT011H.grib2 2026-04-28 06:08 1.8M
20260428T00Z_MSC_CAPS_WindDir_IsbL-0875_RLatLon0.03_PT011H.grib2 2026-04-28 06:08 1.8M
20260428T00Z_MSC_CAPS_WindDir_IsbL-0900_RLatLon0.03_PT011H.grib2 2026-04-28 06:08 1.9M
20260428T00Z_MSC_CAPS_WindDir_IsbL-0925_RLatLon0.03_PT011H.grib2 2026-04-28 06:08 2.0M
20260428T00Z_MSC_CAPS_WindDir_IsbL-0950_RLatLon0.03_PT011H.grib2 2026-04-28 06:08 2.1M
20260428T00Z_MSC_CAPS_WindDir_IsbL-0970_RLatLon0.03_PT011H.grib2 2026-04-28 06:08 2.2M
20260428T00Z_MSC_CAPS_WindDir_IsbL-0985_RLatLon0.03_PT011H.grib2 2026-04-28 06:08 2.3M
20260428T00Z_MSC_CAPS_WindDir_IsbL-1000_RLatLon0.03_PT011H.grib2 2026-04-28 06:08 2.3M
20260428T00Z_MSC_CAPS_WindDir_IsbL-1015_RLatLon0.03_PT011H.grib2 2026-04-28 06:08 2.4M
20260428T00Z_MSC_CAPS_WindGust-Max_AGL-10m_RLatLon0.03_PT011H.grib2 2026-04-28 06:08 2.5M
20260428T00Z_MSC_CAPS_WindGust-Min_AGL-10m_RLatLon0.03_PT011H.grib2 2026-04-28 06:08 2.3M
20260428T00Z_MSC_CAPS_WindGust_AGL-10m_RLatLon0.03_PT011H.grib2 2026-04-28 06:08 2.4M
20260428T00Z_MSC_CAPS_WindSpeed_AGL-10m_RLatLon0.03_PT011H.grib2 2026-04-28 06:08 2.1M
20260428T00Z_MSC_CAPS_WindSpeed_AGL-120m_RLatLon0.03_PT011H.grib2 2026-04-28 06:08 1.2M
20260428T00Z_MSC_CAPS_WindSpeed_AGL-40m_RLatLon0.03_PT011H.grib2 2026-04-28 06:08 1.2M
20260428T00Z_MSC_CAPS_WindSpeed_AGL-80m_RLatLon0.03_PT011H.grib2 2026-04-28 06:08 1.2M
20260428T00Z_MSC_CAPS_WindSpeed_IsbL-0050_RLatLon0.03_PT011H.grib2 2026-04-28 06:08 1.0M
20260428T00Z_MSC_CAPS_WindSpeed_IsbL-0100_RLatLon0.03_PT011H.grib2 2026-04-28 06:08 973K
20260428T00Z_MSC_CAPS_WindSpeed_IsbL-0150_RLatLon0.03_PT011H.grib2 2026-04-28 06:08 1.1M
20260428T00Z_MSC_CAPS_WindSpeed_IsbL-0175_RLatLon0.03_PT011H.grib2 2026-04-28 06:08 1.1M
20260428T00Z_MSC_CAPS_WindSpeed_IsbL-0200_RLatLon0.03_PT011H.grib2 2026-04-28 06:08 883K
20260428T00Z_MSC_CAPS_WindSpeed_IsbL-0225_RLatLon0.03_PT011H.grib2 2026-04-28 06:08 944K
20260428T00Z_MSC_CAPS_WindSpeed_IsbL-0250_RLatLon0.03_PT011H.grib2 2026-04-28 06:08 963K
20260428T00Z_MSC_CAPS_WindSpeed_IsbL-0275_RLatLon0.03_PT011H.grib2 2026-04-28 06:08 968K
20260428T00Z_MSC_CAPS_WindSpeed_IsbL-0300_RLatLon0.03_PT011H.grib2 2026-04-28 06:08 1.0M
20260428T00Z_MSC_CAPS_WindSpeed_IsbL-0350_RLatLon0.03_PT011H.grib2 2026-04-28 06:08 1.0M
20260428T00Z_MSC_CAPS_WindSpeed_IsbL-0400_RLatLon0.03_PT011H.grib2 2026-04-28 06:08 1.0M
20260428T00Z_MSC_CAPS_WindSpeed_IsbL-0450_RLatLon0.03_PT011H.grib2 2026-04-28 06:08 1.3M
20260428T00Z_MSC_CAPS_WindSpeed_IsbL-0500_RLatLon0.03_PT011H.grib2 2026-04-28 06:08 1.3M
20260428T00Z_MSC_CAPS_WindSpeed_IsbL-0550_RLatLon0.03_PT011H.grib2 2026-04-28 06:08 1.3M
20260428T00Z_MSC_CAPS_WindSpeed_IsbL-0600_RLatLon0.03_PT011H.grib2 2026-04-28 06:08 1.4M
20260428T00Z_MSC_CAPS_WindSpeed_IsbL-0650_RLatLon0.03_PT011H.grib2 2026-04-28 06:08 1.3M
20260428T00Z_MSC_CAPS_WindSpeed_IsbL-0700_RLatLon0.03_PT011H.grib2 2026-04-28 06:08 1.5M
20260428T00Z_MSC_CAPS_WindSpeed_IsbL-0750_RLatLon0.03_PT011H.grib2 2026-04-28 06:08 1.5M
20260428T00Z_MSC_CAPS_WindSpeed_IsbL-0800_RLatLon0.03_PT011H.grib2 2026-04-28 06:08 1.6M
20260428T00Z_MSC_CAPS_WindSpeed_IsbL-0850_RLatLon0.03_PT011H.grib2 2026-04-28 06:08 1.7M
20260428T00Z_MSC_CAPS_WindSpeed_IsbL-0875_RLatLon0.03_PT011H.grib2 2026-04-28 06:08 1.7M
20260428T00Z_MSC_CAPS_WindSpeed_IsbL-0900_RLatLon0.03_PT011H.grib2 2026-04-28 06:08 1.8M
20260428T00Z_MSC_CAPS_WindSpeed_IsbL-0925_RLatLon0.03_PT011H.grib2 2026-04-28 06:08 1.8M
20260428T00Z_MSC_CAPS_WindSpeed_IsbL-0950_RLatLon0.03_PT011H.grib2 2026-04-28 06:08 1.9M
20260428T00Z_MSC_CAPS_WindSpeed_IsbL-0970_RLatLon0.03_PT011H.grib2 2026-04-28 06:08 2.0M
20260428T00Z_MSC_CAPS_WindSpeed_IsbL-0985_RLatLon0.03_PT011H.grib2 2026-04-28 06:08 2.0M
20260428T00Z_MSC_CAPS_WindSpeed_IsbL-1000_RLatLon0.03_PT011H.grib2 2026-04-28 06:08 2.0M
20260428T00Z_MSC_CAPS_WindSpeed_IsbL-1015_RLatLon0.03_PT011H.grib2 2026-04-28 06:08 2.1M
20260428T00Z_MSC_CAPS_WindU_AGL-10m_RLatLon0.03_PT011H.grib2 2026-04-28 06:08 1.9M
20260428T00Z_MSC_CAPS_WindU_AGL-120m_RLatLon0.03_PT011H.grib2 2026-04-28 06:08 911K
20260428T00Z_MSC_CAPS_WindU_AGL-40m_RLatLon0.03_PT011H.grib2 2026-04-28 06:08 1.2M
20260428T00Z_MSC_CAPS_WindU_AGL-80m_RLatLon0.03_PT011H.grib2 2026-04-28 06:08 917K
20260428T00Z_MSC_CAPS_WindU_IsbL-0050_RLatLon0.03_PT011H.grib2 2026-04-28 06:08 941K
20260428T00Z_MSC_CAPS_WindU_IsbL-0100_RLatLon0.03_PT011H.grib2 2026-04-28 06:08 969K
20260428T00Z_MSC_CAPS_WindU_IsbL-0150_RLatLon0.03_PT011H.grib2 2026-04-28 06:08 713K
20260428T00Z_MSC_CAPS_WindU_IsbL-0175_RLatLon0.03_PT011H.grib2 2026-04-28 06:08 852K
20260428T00Z_MSC_CAPS_WindU_IsbL-0200_RLatLon0.03_PT011H.grib2 2026-04-28 06:08 867K
20260428T00Z_MSC_CAPS_WindU_IsbL-0225_RLatLon0.03_PT011H.grib2 2026-04-28 06:08 887K
20260428T00Z_MSC_CAPS_WindU_IsbL-0250_RLatLon0.03_PT011H.grib2 2026-04-28 06:08 909K
20260428T00Z_MSC_CAPS_WindU_IsbL-0275_RLatLon0.03_PT011H.grib2 2026-04-28 06:08 707K
20260428T00Z_MSC_CAPS_WindU_IsbL-0300_RLatLon0.03_PT011H.grib2 2026-04-28 06:08 924K
20260428T00Z_MSC_CAPS_WindU_IsbL-0350_RLatLon0.03_PT011H.grib2 2026-04-28 06:08 935K
20260428T00Z_MSC_CAPS_WindU_IsbL-0400_RLatLon0.03_PT011H.grib2 2026-04-28 06:08 940K
20260428T00Z_MSC_CAPS_WindU_IsbL-0450_RLatLon0.03_PT011H.grib2 2026-04-28 06:08 954K
20260428T00Z_MSC_CAPS_WindU_IsbL-0500_RLatLon0.03_PT011H.grib2 2026-04-28 06:08 1.0M
20260428T00Z_MSC_CAPS_WindU_IsbL-0550_RLatLon0.03_PT011H.grib2 2026-04-28 06:08 1.0M
20260428T00Z_MSC_CAPS_WindU_IsbL-0600_RLatLon0.03_PT011H.grib2 2026-04-28 06:08 1.0M
20260428T00Z_MSC_CAPS_WindU_IsbL-0650_RLatLon0.03_PT011H.grib2 2026-04-28 06:08 948K
20260428T00Z_MSC_CAPS_WindU_IsbL-0700_RLatLon0.03_PT011H.grib2 2026-04-28 06:08 1.0M
20260428T00Z_MSC_CAPS_WindU_IsbL-0750_RLatLon0.03_PT011H.grib2 2026-04-28 06:08 1.0M
20260428T00Z_MSC_CAPS_WindU_IsbL-0800_RLatLon0.03_PT011H.grib2 2026-04-28 06:08 1.1M
20260428T00Z_MSC_CAPS_WindU_IsbL-0850_RLatLon0.03_PT011H.grib2 2026-04-28 06:08 1.2M
20260428T00Z_MSC_CAPS_WindU_IsbL-0875_RLatLon0.03_PT011H.grib2 2026-04-28 06:08 1.2M
20260428T00Z_MSC_CAPS_WindU_IsbL-0900_RLatLon0.03_PT011H.grib2 2026-04-28 06:08 1.2M
20260428T00Z_MSC_CAPS_WindU_IsbL-0925_RLatLon0.03_PT011H.grib2 2026-04-28 06:08 1.3M
20260428T00Z_MSC_CAPS_WindU_IsbL-0950_RLatLon0.03_PT011H.grib2 2026-04-28 06:08 1.3M
20260428T00Z_MSC_CAPS_WindU_IsbL-0970_RLatLon0.03_PT011H.grib2 2026-04-28 06:08 1.7M
20260428T00Z_MSC_CAPS_WindU_IsbL-0985_RLatLon0.03_PT011H.grib2 2026-04-28 06:08 1.8M
20260428T00Z_MSC_CAPS_WindU_IsbL-1000_RLatLon0.03_PT011H.grib2 2026-04-28 06:08 1.8M
20260428T00Z_MSC_CAPS_WindU_IsbL-1015_RLatLon0.03_PT011H.grib2 2026-04-28 06:08 1.9M
20260428T00Z_MSC_CAPS_WindV_AGL-10m_RLatLon0.03_PT011H.grib2 2026-04-28 06:08 2.0M
20260428T00Z_MSC_CAPS_WindV_AGL-120m_RLatLon0.03_PT011H.grib2 2026-04-28 06:08 1.2M
20260428T00Z_MSC_CAPS_WindV_AGL-40m_RLatLon0.03_PT011H.grib2 2026-04-28 06:08 1.2M
20260428T00Z_MSC_CAPS_WindV_AGL-80m_RLatLon0.03_PT011H.grib2 2026-04-28 06:08 1.2M
20260428T00Z_MSC_CAPS_WindV_IsbL-0050_RLatLon0.03_PT011H.grib2 2026-04-28 06:08 945K
20260428T00Z_MSC_CAPS_WindV_IsbL-0100_RLatLon0.03_PT011H.grib2 2026-04-28 06:08 799K
20260428T00Z_MSC_CAPS_WindV_IsbL-0150_RLatLon0.03_PT011H.grib2 2026-04-28 06:08 1.0M
20260428T00Z_MSC_CAPS_WindV_IsbL-0175_RLatLon0.03_PT011H.grib2 2026-04-28 06:08 935K
20260428T00Z_MSC_CAPS_WindV_IsbL-0200_RLatLon0.03_PT011H.grib2 2026-04-28 06:08 735K
20260428T00Z_MSC_CAPS_WindV_IsbL-0225_RLatLon0.03_PT011H.grib2 2026-04-28 06:08 880K
20260428T00Z_MSC_CAPS_WindV_IsbL-0250_RLatLon0.03_PT011H.grib2 2026-04-28 06:08 904K
20260428T00Z_MSC_CAPS_WindV_IsbL-0275_RLatLon0.03_PT011H.grib2 2026-04-28 06:08 911K
20260428T00Z_MSC_CAPS_WindV_IsbL-0300_RLatLon0.03_PT011H.grib2 2026-04-28 06:08 921K
20260428T00Z_MSC_CAPS_WindV_IsbL-0350_RLatLon0.03_PT011H.grib2 2026-04-28 06:08 935K
20260428T00Z_MSC_CAPS_WindV_IsbL-0400_RLatLon0.03_PT011H.grib2 2026-04-28 06:08 941K
20260428T00Z_MSC_CAPS_WindV_IsbL-0450_RLatLon0.03_PT011H.grib2 2026-04-28 06:08 829K
20260428T00Z_MSC_CAPS_WindV_IsbL-0500_RLatLon0.03_PT011H.grib2 2026-04-28 06:08 861K
20260428T00Z_MSC_CAPS_WindV_IsbL-0550_RLatLon0.03_PT011H.grib2 2026-04-28 06:08 899K
20260428T00Z_MSC_CAPS_WindV_IsbL-0600_RLatLon0.03_PT011H.grib2 2026-04-28 06:08 923K
20260428T00Z_MSC_CAPS_WindV_IsbL-0650_RLatLon0.03_PT011H.grib2 2026-04-28 06:08 1.2M
20260428T00Z_MSC_CAPS_WindV_IsbL-0700_RLatLon0.03_PT011H.grib2 2026-04-28 06:08 1.0M
20260428T00Z_MSC_CAPS_WindV_IsbL-0750_RLatLon0.03_PT011H.grib2 2026-04-28 06:08 1.0M
20260428T00Z_MSC_CAPS_WindV_IsbL-0800_RLatLon0.03_PT011H.grib2 2026-04-28 06:08 1.4M
20260428T00Z_MSC_CAPS_WindV_IsbL-0850_RLatLon0.03_PT011H.grib2 2026-04-28 06:08 1.5M
20260428T00Z_MSC_CAPS_WindV_IsbL-0875_RLatLon0.03_PT011H.grib2 2026-04-28 06:08 1.5M
20260428T00Z_MSC_CAPS_WindV_IsbL-0900_RLatLon0.03_PT011H.grib2 2026-04-28 06:08 1.6M
20260428T00Z_MSC_CAPS_WindV_IsbL-0925_RLatLon0.03_PT011H.grib2 2026-04-28 06:08 1.6M
20260428T00Z_MSC_CAPS_WindV_IsbL-0950_RLatLon0.03_PT011H.grib2 2026-04-28 06:08 1.7M
20260428T00Z_MSC_CAPS_WindV_IsbL-0970_RLatLon0.03_PT011H.grib2 2026-04-28 06:08 1.7M
20260428T00Z_MSC_CAPS_WindV_IsbL-0985_RLatLon0.03_PT011H.grib2 2026-04-28 06:08 1.8M
20260428T00Z_MSC_CAPS_WindV_IsbL-1000_RLatLon0.03_PT011H.grib2 2026-04-28 06:08 2.0M
20260428T00Z_MSC_CAPS_WindV_IsbL-1015_RLatLon0.03_PT011H.grib2 2026-04-28 06:08 2.0M